Kimball, NE

12:26 PM MDT on September 27, 2016 (GMT -0600)
Kimball Municipal-Arraj

Weather History for KIBM - April, 2013

Change the Weather History Date:

Tuesday, April 23, 2013

  Actual Average (KSNY) Record (KSNY)
Temperature  
Mean Temperature 30 °F 50 °F  
Max Temperature 40 °F 65 °F 90 °F (1989)
Min Temperature 19 °F 36 °F 17 °F (1958)
Degree Days  
Heating Degree Days 36 15  
Month to date heating degree days 433  
Since 1 July heating degree days 5818  
Cooling Degree Days 0 0  
Month to date cooling degree days 0  
Year to date cooling degree days 0  
Moisture  
Dew Point 16 °F    
Average Humidity 64    
Maximum Humidity 91    
Minimum Humidity 32    
Precipitation  
Precipitation 0.00 in 0.08 in 1.38 in (2007)
Month to date precipitation 1.46  
Year to date precipitation 3.08  
Sea Level Pressure  
Sea Level Pressure 30.16 in    
Wind  
Wind Speed 8 mph (NNW)    
Max Wind Speed 14 mph    
Max Gust Speed 21 mph    
Visibility 10 miles    
Events Snow    
T = Trace of Precipitation, MM = Missing Value Source: NWS Daily Summary

Daily Weather History Graph

Daily Weather History Graph

Search for Another Location

Airport or City:

Trip Planner

Search our weather history database for the weather conditions in past years. The results will help you decide how hot, cold, wet, or windy it might be!

Date:

Astronomy

Apr. 23, 2013 Rise Set
Actual Time 7:02 AM CDT 8:43 PM CDT
Civil Twilight 6:33 AM CDT 9:13 PM CDT
Nautical Twilight 5:58 AM CDT 9:48 PM CDT
Astronomical Twilight 5:20 AM CDT 10:26 PM CDT
Moon 6:40 PM CDT (4/23) 5:33 AM CDT (4/23)
Length of Visible Light 14h 39m
Length of Day
13h 40m
Waxing Gibbous, 94% of the Moon is Illuminated
Apr 23
Waxing Gibbous
Apr 25
Full
May 2
Last Quarter
May 9
New
May 17
First Quarter

Hourly Weather History & Observations

Time (CDT) Temp. Windchill Dew Point Humidity Pressure Visibility Wind Dir Wind Speed Gust Speed Precip Events Conditions
12:15 AM 23.5 °F 13.7 °F 19.2 °F 84% 30.27 in 10.0 mi NNE 9.2 mph - N/A   Overcast
12:35 AM 23.4 °F 14.3 °F 19.2 °F 84% 30.26 in 10.0 mi NNE 8.1 mph - N/A   Mostly Cloudy
12:55 AM 23.0 °F 13.9 °F 18.3 °F 82% 30.25 in 10.0 mi NNE 8.1 mph - N/A   Scattered Clouds
1:15 AM 22.8 °F 13.6 °F 18.5 °F 83% 30.26 in 10.0 mi NNE 8.1 mph - N/A   Clear
1:35 AM 22.8 °F 12.2 °F 18.3 °F 83% 30.25 in 10.0 mi NNE 10.4 mph - N/A   Mostly Cloudy
2:15 AM 22.1 °F 13.7 °F 18.1 °F 85% 30.27 in 10.0 mi North 6.9 mph - N/A   Overcast
2:35 AM 21.2 °F 12.6 °F 17.4 °F 85% 30.25 in 10.0 mi NNE 6.9 mph - N/A   Scattered Clouds
2:59 AM 21.2 °F 12.6 °F 17.6 °F 86% 30.24 in 10.0 mi North 6.9 mph - N/A   Scattered Clouds
3:15 AM 20.8 °F 11.2 °F 17.4 °F 87% 30.24 in 10.0 mi North 8.1 mph - N/A   Clear
3:55 AM 20.3 °F 10.6 °F 18.0 °F 91% 30.22 in 10.0 mi North 8.1 mph - N/A   Clear
4:15 AM 20.7 °F 11.9 °F 18.0 °F 89% 30.22 in 10.0 mi North 6.9 mph - N/A   Clear
4:35 AM 20.3 °F 10.6 °F 17.6 °F 89% 30.20 in 10.0 mi North 8.1 mph - N/A   Clear
5:15 AM 19.9 °F 9.3 °F 16.9 °F 88% 30.20 in 10.0 mi North 9.2 mph - N/A   Clear
5:35 AM 20.3 °F 9.8 °F 17.2 °F 88% 30.21 in 10.0 mi North 9.2 mph - N/A   Mostly Cloudy
5:55 AM 20.3 °F 9.8 °F 16.7 °F 86% 30.21 in 10.0 mi North 9.2 mph - N/A   Mostly Cloudy
6:15 AM 20.3 °F 11.5 °F 16.9 °F 87% 30.21 in 10.0 mi NNW 6.9 mph - N/A   Scattered Clouds
6:35 AM 20.3 °F 12.5 °F 17.1 °F 87% 30.21 in 10.0 mi North 5.8 mph - N/A   Scattered Clouds
6:55 AM 20.3 °F 10.6 °F 16.7 °F 86% 30.20 in 10.0 mi North 8.1 mph - N/A   Mostly Cloudy
7:15 AM 20.3 °F 10.6 °F 16.9 °F 87% 30.19 in 10.0 mi NNW 8.1 mph - N/A   Overcast
7:35 AM 20.8 °F 11.2 °F 15.8 °F 81% 30.20 in 10.0 mi NNW 8.1 mph - N/A   Overcast
7:55 AM 21.0 °F 11.4 °F 16.7 °F 83% 30.20 in 10.0 mi North 8.1 mph - N/A   Overcast
8:15 AM 21.6 °F 12.1 °F 16.3 °F 80% 30.21 in 10.0 mi NNW 8.1 mph - N/A   Overcast
8:35 AM 21.9 °F 12.5 °F 16.3 °F 79% 30.21 in 10.0 mi North 8.1 mph - N/A   Overcast
8:55 AM 23.4 °F 15.2 °F 16.5 °F 75% 30.22 in 10.0 mi NNW 6.9 mph - N/A   Overcast
9:15 AM 24.1 °F 15.2 °F 16.2 °F 72% 30.22 in 10.0 mi NNW 8.1 mph - N/A   Overcast
9:35 AM 24.8 °F 14.6 °F 16.7 °F 71% 30.22 in 10.0 mi NNW 10.4 mph - N/A   Overcast
9:55 AM 25.2 °F 16.5 °F 18.0 °F 74% 30.21 in 10.0 mi NW 8.1 mph - N/A   Overcast
10:15 AM 24.8 °F 16.1 °F 17.4 °F 74% 30.21 in 7.0 mi NNW 8.1 mph - N/A Snow Light Snow
10:35 AM 25.5 °F 16.9 °F 17.6 °F 72% 30.21 in 10.0 mi NNW 8.1 mph - N/A   Overcast
10:55 AM 26.6 °F 17.5 °F 17.1 °F 67% 30.20 in 10.0 mi WNW 9.2 mph - N/A   Overcast
11:15 AM 27.5 °F 20.2 °F 17.1 °F 65% 30.20 in 10.0 mi NW 6.9 mph - N/A   Scattered Clouds
11:35 AM 28.0 °F 20.0 °F 15.3 °F 59% 30.20 in 10.0 mi NNW 8.1 mph - N/A   Mostly Cloudy
11:55 AM 30.0 °F 24.1 °F 15.8 °F 56% 30.20 in 10.0 mi NNW 5.8 mph - N/A   Scattered Clouds
12:15 PM 29.5 °F 23.4 °F 14.0 °F 53% 30.19 in 10.0 mi NNW 5.8 mph - N/A   Scattered Clouds
12:35 PM 30.2 °F 23.4 °F 13.8 °F 51% 30.19 in 10.0 mi NNW 6.9 mph - N/A   Mostly Cloudy
12:55 PM 31.8 °F 24.6 °F 15.6 °F 51% 30.17 in 10.0 mi NW 8.1 mph - N/A   Overcast
1:15 PM 31.3 °F 25.6 °F 14.9 °F 51% 30.17 in 10.0 mi NW 5.8 mph - N/A   Mostly Cloudy
1:35 PM 32.5 °F 25.5 °F 15.4 °F 49% 30.16 in 10.0 mi NW 8.1 mph - N/A   Mostly Cloudy
1:55 PM 33.3 °F 24.6 °F 14.9 °F 47% 30.14 in 10.0 mi WNW 11.5 mph 16.1 mph N/A   Overcast
2:15 PM 33.4 °F 24.8 °F 14.0 °F 45% 30.13 in 10.0 mi NNW 11.5 mph - N/A   Overcast
2:35 PM 34.2 °F 24.8 °F 15.1 °F 46% 30.13 in 10.0 mi NW 13.8 mph 17.3 mph N/A   Overcast
2:55 PM 36.0 °F 29.6 °F 16.2 °F 45% 30.12 in 10.0 mi North 8.1 mph - N/A   Overcast
3:15 PM 35.4 °F 29.0 °F 14.7 °F 43% 30.12 in 10.0 mi WNW 8.1 mph - N/A   Mostly Cloudy
3:35 PM 36.3 °F 29.5 °F 13.6 °F 39% 30.11 in 10.0 mi North 9.2 mph - N/A   Mostly Cloudy
3:55 PM 36.0 °F 29.0 °F 14.9 °F 42% 30.10 in 10.0 mi NW 9.2 mph - N/A   Mostly Cloudy
4:15 PM 39.2 °F 33.0 °F 14.5 °F 37% 30.10 in 10.0 mi NNW 9.2 mph - N/A   Mostly Cloudy
4:35 PM 39.0 °F 31.0 °F 14.7 °F 37% 30.09 in 10.0 mi WNW 13.8 mph 20.7 mph N/A   Mostly Cloudy
4:55 PM 40.5 °F 32.8 °F 14.0 °F 34% 30.08 in 10.0 mi West 13.8 mph 18.4 mph N/A   Mostly Cloudy
5:15 PM 39.9 °F 34.5 °F 13.5 °F 34% 30.08 in 10.0 mi NNW 8.1 mph 17.3 mph N/A   Scattered Clouds
5:35 PM 38.7 °F 30.9 °F 12.4 °F 34% 30.07 in 10.0 mi NNW 12.7 mph 19.6 mph N/A   Scattered Clouds
5:55 PM 39.0 °F 31.8 °F 11.8 °F 33% 30.08 in 10.0 mi NW 11.5 mph - N/A   Scattered Clouds
6:15 PM 39.7 °F 33.2 °F 12.4 °F 33% 30.08 in 10.0 mi NW 10.4 mph 16.1 mph N/A   Scattered Clouds
6:35 PM 40.3 °F 34.4 °F 12.6 °F 32% 30.08 in 10.0 mi NW 9.2 mph 16.1 mph N/A   Scattered Clouds
6:55 PM 40.5 °F 34.6 °F 12.9 °F 33% 30.08 in 10.0 mi North 9.2 mph - N/A   Scattered Clouds
7:15 PM 39.6 °F 32.1 °F 13.8 °F 35% 30.08 in 10.0 mi North 12.7 mph - N/A   Mostly Cloudy
7:35 PM 37.4 °F 30.3 °F 14.2 °F 39% 30.08 in 10.0 mi North 10.4 mph - N/A   Mostly Cloudy
7:55 PM 38.3 °F 31.4 °F 14.9 °F 39% 30.08 in 10.0 mi North 10.4 mph 16.1 mph N/A   Mostly Cloudy
8:15 PM 37.6 °F 31.0 °F 15.3 °F 40% 30.08 in 10.0 mi NNW 9.2 mph - N/A   Mostly Cloudy
8:35 PM 34.9 °F 29.0 °F 16.5 °F 47% 30.09 in 10.0 mi North 6.9 mph - N/A   Scattered Clouds
8:55 PM 32.4 °F 26.9 °F 17.2 °F 54% 30.09 in 10.0 mi North 5.8 mph - N/A   Clear
9:15 PM 32.0 °F 27.5 °F 17.6 °F 55% 30.10 in 10.0 mi North 4.6 mph - N/A   Clear
9:35 PM 31.5 °F 28.1 °F 18.3 °F 58% 30.11 in 10.0 mi North 3.5 mph - N/A   Clear
9:55 PM 30.2 °F - 18.5 °F 62% 30.11 in 10.0 mi Calm Calm - N/A   Clear
10:15 PM 32.2 °F - 17.6 °F 55% 30.12 in 10.0 mi Calm Calm - N/A   Clear
10:35 PM 28.2 °F 23.1 °F 21.0 °F 74% 30.12 in 10.0 mi SSW 4.6 mph - N/A   Clear
10:55 PM 27.5 °F 21.1 °F 21.2 °F 77% 30.12 in 10.0 mi SW 5.8 mph - N/A   Clear
11:15 PM 26.6 °F 19.1 °F 21.2 °F 80% 30.13 in 10.0 mi SW 6.9 mph - N/A   Clear
11:35 PM 28.4 °F 19.7 °F 21.9 °F 77% 30.13 in 10.0 mi SW 9.2 mph - N/A   Clear
11:55 PM 27.3 °F 19.1 °F 23.0 °F 84% 30.12 in 10.0 mi WSW 8.1 mph - N/A   Clear